EW1382 Weather Reports


Display with metric or nautical units.
time (UTC)temp
F
wind
direction
speed
MPH
gust
MPH
rain 1hr
in
rain 24hr
in
rain mn
in
humidity
%
barometer
mb
20170428173326 66 335 2.0 4.0 0.00 0.23 0.01 54 1015.2
20170428171831 65 129 2.0 4.0 0.00 0.23 0.01 57 1015.4
20170428170315 65 64 1.0 4.0 0.00 0.23 0.01 59 1015.2
20170428164817 65 120 2.0 3.0 0.00 0.23 0.01 58 1015.2
20170428163328 65 183 1.0 5.0 0.00 0.23 0.01 55 1015.3
20170428161830 65 160 4.0 6.0 0.00 0.23 0.01 57 1015.5
20170428160319 64 283 4.0 8.0 0.00 0.23 0.01 54 1015.7
20170428154820 63 212 2.0 10.0 0.00 0.23 0.01 58 1015.6
20170428153327 63 217 2.0 6.0 0.00 0.23 0.01 59 1015.6
20170428151832 61 294 3.0 8.0 0.00 0.23 0.01 61 1015.8
20170428150319 60 316 4.0 9.0 0.00 0.23 0.01 62 1015.9
20170428144824 60 283 5.0 11.0 0.00 0.23 0.01 61 1015.8
20170428143333 59 340 4.0 8.0 0.00 0.23 0.01 62 1015.6
20170428141817 59 282 5.0 13.0 0.00 0.23 0.01 64 1015.9
20170428140325 59 184 5.0 13.0 0.00 0.23 0.01 65 1015.8
20170428134826 57 276 6.0 14.0 0.00 0.23 0.01 65 1016.0
20170428133315 57 283 6.0 12.0 0.00 0.23 0.01 67 1016.0
20170428131833 57 272 5.0 13.0 0.00 0.23 0.01 67 1016.0
20170428130324 56 252 6.0 14.0 0.00 0.23 0.01 66 1016.1
20170428124824 56 325 6.0 15.0 0.00 0.23 0.01 67 1015.9
20170428123332 56 281 3.0 13.0 0.00 0.23 0.01 70 1015.7
20170428121818 55 297 5.0 18.0 0.00 0.23 0.01 70 1015.4
20170428120325 55 286 5.0 12.0 0.00 0.23 0.01 70 1015.4
20170428114827 55 303 6.0 12.0 0.00 0.23 0.01 71 1015.1
20170428113314 54 290 1.0 5.0 0.00 0.23 0.01 73 1014.8
20170428111816 54 263 3.0 8.0 0.00 0.23 0.01 74 1014.5
20170428110327 54 293 1.0 4.0 0.00 0.23 0.01 75 1014.5
20170428104828 53 243 3.0 7.0 0.00 0.23 0.01 76 1014.4
20170428103316 53 191 0.0 3.0 0.00 0.23 0.01 78 1014.2
20170428101815 53 302 1.0 6.0 0.00 0.23 0.01 78 1013.7
20170428094822 53 214 1.0 6.0 0.00 0.23 0.01 76 1013.2
20170428093333 54 136 2.0 8.0 0.00 0.23 0.01 75 1012.9
20170428091820 54 304 2.0 10.0 0.00 0.23 0.01 75 1012.7
20170428090322 55 233 3.0 8.0 0.00 0.23 0.01 75 1012.3
20170428084822 55 302 3.0 9.0 0.00 0.23 0.01 75 1012.1
20170428083315 55 283 4.0 11.0 0.00 0.23 0.01 73 1011.5
20170428081816 56 300 5.0 11.0 0.00 0.23 0.01 71 1011.3
20170428080328 56 233 3.0 9.0 0.00 0.23 0.01 72 1011.2
20170428074830 56 307 8.0 15.0 0.00 0.23 0.01 71 1010.8
20170428073317 57 330 6.0 15.0 0.00 0.23 0.01 71 1010.6
20170428071822 57 243 5.0 13.0 0.00 0.23 0.01 72 1010.5
20170428070330 58 306 6.0 14.0 0.00 0.23 0.01 71 1010.0
20170428064814 59 243 2.0 10.0 0.00 0.23 0.01 71 1009.8
20170428063322 59 219 5.0 16.0 0.01 0.23 0.01 68 1009.3
20170428061823 60 311 4.0 16.0 0.01 0.23 0.01 76 1009.0
20170428060314 61 299 6.0 14.0 0.01 0.23 0.01 76 1008.7
20170428054817 61 239 3.0 8.0 0.01 0.23 0.01 81 1008.5
20170428053328 61 81 4.0 8.0 0.00 0.22 0.00 83 1008.1
20170428051828 61 304 4.0 10.0 0.00 0.22 0.00 86 1007.8
20170428050316 61 294 4.0 10.0 0.00 0.22 0.00 89 1007.1
20170428044821 61 306 3.0 9.0 0.00 0.22 0.00 91 1006.7
20170428043329 61 283 2.0 5.0 0.11 0.22 0.00 92 1007.2
20170428041813 62 286 3.0 6.0 0.22 0.22 0.00 91 1007.0
20170428040316 62 281 2.0 8.0 0.22 0.22 0.00 91 1007.1
20170428034817 63 210 1.0 4.0 0.22 0.22 0.22 89 1006.8
20170428033330 64 290 4.0 12.0 0.10 0.10 0.10 84 1007.1
20170428031830 67 302 4.0 9.0 0.00 0.00 0.00 77 1007.0
20170428030319 68 278 7.0 13.0 0.00 0.00 0.00 74 1006.3
20170428024820 69 297 3.0 10.0 0.00 0.00 0.00 74 1006.0
20170428023329 70 230 5.0 14.0 0.00 0.00 0.00 73 1006.3
20170428021814 72 323 5.0 11.0 0.00 0.00 0.00 70 1005.4
20170428020317 73 219 2.0 4.0 0.00 0.00 0.00 71 1004.7
20170428014818 74 138 3.0 9.0 0.00 0.00 0.00 69 1004.3
20170428013321 73 181 4.0 8.0 0.00 0.00 0.00 70 1003.7
20170428011816 73 194 5.0 13.0 0.00 0.00 0.00 70 1003.6
20170428010328 74 181 4.0 16.0 0.00 0.00 0.00 70 1003.7
20170428004825 75 183 8.0 16.0 0.00 0.00 0.00 64 1003.2
20170428003316 75 149 10.0 19.0 0.00 0.00 0.00 64 1003.1
20170428001815 75 174 11.0 20.0 0.00 0.00 0.00 63 1002.9
20170428000314 75 168 11.0 24.0 0.00 0.00 0.00 62 1002.5
20170427234814 75 141 8.0 16.0 0.00 0.00 0.00 62 1002.0
20170427233317 76 150 11.0 22.0 0.00 0.00 0.00 60 1001.9
20170427231821 76 167 14.0 24.0 0.00 0.00 0.00 59 1001.7
20170427230329 76 150 9.0 16.0 0.00 0.00 0.00 59 1001.8
20170427224829 76 205 9.0 21.0 0.00 0.00 0.00 56 1001.8
20170427223319 76 244 6.0 22.0 0.00 0.00 0.00 55 1002.0
20170427221820 77 156 9.0 20.0 0.00 0.00 0.00 53 1002.1
20170427220331 78 143 12.0 22.0 0.00 0.00 0.00 53 1002.1
20170427214833 77 161 13.0 21.0 0.00 0.00 0.00 56 1001.8
20170427213320 77 139 11.0 20.0 0.00 0.00 0.00 57 1001.3
20170427211824 78 124 12.0 22.0 0.00 0.00 0.00 58 1001.3
20170427210331 77 193 11.0 22.0 0.00 0.00 0.00 59 1001.5
20170427204832 78 172 11.0 18.0 0.00 0.00 0.00 59 1001.9
20170427203320 78 141 9.0 17.0 0.00 0.00 0.00 62 1002.0
20170427200326 79 148 14.0 20.0 0.00 0.00 0.00 60 1002.3
20170427194825 78 131 13.0 20.0 0.00 0.00 0.00 61 1002.6
20170427193328 78 153 9.0 19.0 0.00 0.00 0.00 68 1002.8
20170427191831 77 141 9.0 19.0 0.00 0.00 0.00 65 1003.0
20170427190318 79 136 7.0 15.0 0.00 0.00 0.00 66 1003.2
20170427184821 78 143 9.0 15.0 0.00 0.00 0.00 67 1003.4
20170427183330 78 173 7.0 14.0 0.00 0.00 0.00 70 1003.5
20170427181830 77 124 13.0 18.0 0.00 0.00 0.00 67 1003.5
20170427180321 77 136 13.0 20.0 0.00 0.00 0.00 65 1003.9
20170427174823 76 206 11.0 17.0 0.00 0.00 0.00 68 1004.2